Regional Weather Roundup
Issued by NWS

Home | Current Version | Previous Version | Graphics & Text | Print | Product List | Glossary Off
Versions: 1 2 3 4 5 6 7 8 9 10 11 12 13 14 15 16 17 18 19 20 21 22 23 24 25 26 27 28 29 30 31 32 33 34 35 36 37 38 39 40 41 42 43 44 45 46 47 48 49 50

431
ASUS43 KMPX 250301
RWRMN
WEATHER ROUNDUP FOR MINNESOTA
NATIONAL WEATHER SERVICE TWIN CITIES/CHANHASSEN MN
1000 PM CDT SAT JUN 24 2017


NOTE: "FAIR" INDICATES FEW OR NO CLOUDS BELOW 12,000 FEET WITH NO
SIGNIFICANT WEATHER AND/OR OBSTRUCTIONS TO VISIBILITY. N/A MEANS
CURRENT SKY AND/OR WEATHER CONDITIONS ARE NOT AVAILABLE.

MNZ060>063-068>070-250400-
   Twin Cities Metro

CITY           SKY/WX    TMP DP  RH WIND       PRES   REMARKS
TWIN CITIES    PTCLDY    60  45  57 W9        30.07R
ST PAUL        CLEAR     60  45  57 NW14G20   30.07R
CRYSTAL        MOCLDY    58  44  60 W6        30.06R
BLAINE         PTCLDY    57  46  67 W7        30.06R
LAKEVILLE      MOCLDY    55  48  76 W5        30.08R
EDEN PRAIRIE   CLEAR     58  47  66 W7        30.07R
SOUTH ST PAUL  PTCLDY    60  45  57 NW7       30.06R
LAKE ELMO      FAIR      55  45  67 W6        30.07R
$$
MNZ001>005-007-008-013>017-022>024-027-028-250400-
   Northwest Minnesota

CITY           SKY/WX    TMP DP  RH WIND       PRES   REMARKS
BEMIDJI        CLOUDY    52  51  97 W9        30.05R
HALLOCK        DRIZZLE   52  48  87 N13       30.15R
ROSEAU         DRIZZLE   50  45  81 N12G17    30.10R
WARROAD        LGT RAIN  52  46  82 NW12G21   30.09R
CROOKSTON      CLOUDY    50  48  93 NW12      30.15R
FOSSTON        DRIZZLE   48  48 100 NW16      30.10R
DETROIT LAKES  CLOUDY    50  46  87 NW18G24   30.13R FOG
MOORHEAD       CLOUDY    48  46  93 NW18G24   30.17R FOG
PARK RAPIDS    CLOUDY    53  47  79 NW12      30.07R
MAHNOMEN       CLOUDY    49  48  95 NW14      30.11R
$$
MNZ006-009>011-018-025>026-250400-
   North Central Minnesota

CITY           SKY/WX    TMP DP  RH WIND       PRES   REMARKS
BAUDETTE       CLOUDY    55  53  93 N14       30.05R
FLAG ISLAND    CLOUDY    54  48  82 N18       30.07R
INTL FALLS     CLOUDY    55  53  93 NW10G18   30.01R
WASKISH        CLOUDY    55  52  88 N3        30.03R
BIG FORK       MOCLDY    55  48  76 CALM      30.01R
LONGVILLE      CLOUDY    55  50  82 W5        30.04R
GRAND RAPIDS   MOCLDY    57  46  66 NW7       30.03R
CRANE LAKE     CLOUDY    54  52  94 CALM      30.01R
ORR            DRIZZLE   54  48  82 CALM      29.98R
COOK           CLOUDY    54  52  94 CALM      30.01R
WALKER         CLOUDY    51  49  94 W8G17     30.05R
$$
MNZ012-019>021-037-250400-
   Northeast Minnesota

CITY           SKY/WX    TMP DP  RH WIND       PRES   REMARKS
DULUTH         CLOUDY    53  50  89 W7        29.99R
ELY            CLOUDY    54  52  94 CALM      29.98R
HIBBING        CLOUDY    54  48  80 NW8       29.99R
EVELETH        MOCLDY    58  47  67 NW5       30.00R
DULUTH HARBOR  CLOUDY    61  52  72 W7        29.99R
TWO HARBORS    CLOUDY    61  52  72 CALM      29.95R
SILVER BAY     CLOUDY    57  48  72 CALM      29.95R
GRAND MARAIS     N/A     49  48  97 CALM      29.94R
G MARAIS ARPRT CLOUDY    52  48  87 N5        29.96R
$$
MNZ029>031-032-039>041-046>048-054>057-064-250400-
   West Central Minnesota

CITY           SKY/WX    TMP DP  RH WIND       PRES   REMARKS
FERGUS FALLS   CLOUDY    54  46  76 NW20G25   30.13R
WHEATON        CLOUDY    57  41  54 NW15G23   30.17R
MORRIS         MOCLDY    55  48  76 NW13      30.13R
ALEXANDRIA     CLOUDY    54  49  83 NW12      30.12R
ELBOW LAKE     MOCLDY    54  49  82 NW13G21   30.14R
WADENA         CLOUDY    52  46  82 NW10      30.09R
GLENWOOD       MOCLDY    55  48  76 NW8       30.12R
APPLETON       MOCLDY    57  48  72 NW9       30.14R
BENSON         CLOUDY    57  48  72 NW13      30.15R
ORTONVILLE     CLOUDY    57  45  62 NW17G24   30.15R
MADISON        CLOUDY    61  46  59 NW13      30.16R
WILLMAR        MOCLDY    59  48  67 NW14G20   30.13R
$$
MNZ033>034-036-042>043-049>051-058-059-250400-
   Central Minnesota

CITY           SKY/WX    TMP DP  RH WIND       PRES   REMARKS
ST CLOUD       CLOUDY    58  48  69 NW15G21   30.07R
SAUK CENTRE    MOCLDY    55  48  78 NW9       30.10R
PAYNESVILLE    DRIZZLE   57  47  71 NW9       30.11R
AITKIN         CLEAR     54  46  76 W6        30.02R
PINE RIVER     CLOUDY    54  48  82 W7        30.09R
BRAINERD       CLOUDY    54  50  86 NW10      30.06R
STAPLES        CLOUDY    52  48  87 W12       30.09R
LONG PRAIRIE   CLOUDY    52  48  87 W10       30.10R
LITTLE FALLS   CLOUDY    54  48  82 W9        30.08R
LITCHFIELD     MOCLDY    61  48  63 NW12      30.10R
BUFFALO        PTCLDY    56  48  74 W5        30.09R
MAPLE LAKE     PTCLDY    57  49  75 W7        30.09R
HUTCHINSON     PTCLDY    58  48  69 W6        30.11R
$$
MNZ037-044-045-052-053-250400-
   East Central Minnesota

CITY           SKY/WX    TMP DP  RH WIND       PRES   REMARKS
PRINCETON      CLEAR     55  46  71 W6        30.07R
MORA           PTCLDY    54  45  71 W5        30.05R
CAMBRIDGE      CLEAR     57  46  67 W5        30.04R
RUSH CITY      LGT RAIN  54  46  76 W5        30.04R
MOOSE LAKE     PTCLDY    50  46  87 CALM      30.00R
HINCKLEY       CLOUDY    54  52  94 CALM      30.03R
CLOQUET        CLOUDY    55  46  71 NW3       30.00R
MCGREGOR       PTCLDY    52  46  82 W3        30.03R
$$
MNZ071>073-080-081-089-090-097-098-250400-
   Southwest Minnesota

CITY           SKY/WX    TMP DP  RH WIND       PRES   REMARKS
MONTEVIDEO     CLOUDY    59  45  58 N13G22    30.15R
GRANITE FALLS  PTCLDY    59  46  61 W13       30.15R
CANBY          CLOUDY    59  45  59 W13G21    30.18R
MARSHALL       MOCLDY    59  43  55 NW15      30.15R
REDWOOD FALLS  CLEAR     59  42  53 NW13      30.13R
OLIVIA         PTCLDY    59  45  58 NW13G20   30.12R
PIPESTONE      PTCLDY    59  41  51 N12       30.18R
WINDOM         CLEAR     55  39  54 NW8       30.15R
WORTHINGTON    CLEAR     55  41  59 NW8       30.17R
JACKSON        CLEAR     55  39  54 NW8       30.15R
TRACY          CLOUDY    60  44  54 NW9       30.15R
SLAYTON        CLOUDY    57  30  35 NW9       30.16R
$$
MNZ065>067-074>077-082>085-091>093-250400-
   South Central Minnesota

CITY           SKY/WX    TMP DP  RH WIND       PRES   REMARKS
MANKATO        CLEAR     57  45  64 W5        30.11R
NEW ULM        PTCLDY    57  41  54 NW10      30.11R
ST JAMES       CLEAR     55  43  62 W7        30.13R
FAIRMONT       CLEAR     58  41  53 NW9       30.13R
GLENCOE        PTCLDY    57  49  76 W6        30.09R
FARIBAULT      PTCLDY    57  45  62 W7        30.09R
OWATONNA       CLEAR     55  45  67 W6        30.09R
WASECA         CLEAR     52  45  76 W7        30.11R
ALBERT LEA     CLEAR     57  43  58 CALM      30.10R
$$
MNZ078>079-086>088-094>096-250400-
   Southeast Minnesota

CITY           SKY/WX    TMP DP  RH WIND       PRES   REMARKS
ROCHESTER      CLEAR     52  46  80 W7        30.09R
RED WING       PTCLDY    57  45  62 NW3       30.05R
STANTON        MOCLDY    55  48  75 NW5       30.07R
DODGE CENTER   CLEAR     55  45  67 W8        30.09R
WINONA         CLEAR     54  52  94 CALM      30.06R
AUSTIN         CLEAR     55  45  67 NW5       30.09R
PRESTON        CLEAR     53  44  73 NW6       30.09R
$$
ABBREVIATIONS USED IN REMARKS
   TC - TEMPERATURES IN CELSIUS
  WCI - WIND CHILL INDEX
   HX - HEAT INDEX
  VSB - VISIBILITY
$$




USA.gov is the U.S. government's official web portal to all federal, state and local government web resources and services.